CAPE
0 0 0 0 0 0 0 0 0 0 0 0 0 0 0 0 0 0 0 0 0 0 0 0 0 0 0 0 0 0 0 0 0 0 0 0 0 0 0 0 0 0 0
0 0 0 0 0 0 0 0 0 0 0 0 0 0 0 0 0 0 0 0 0 0 0 0 0 0 0 0 0 0 0 0 0 0 0 0 0 0 0 0 0 0 0
0 0 0 0 0 0 0 0 0 0 0 0 0 0 0 0 0 0 0 0 0 0 0 0 0 0 0 0 0 0 0 0 0 0 0 0 0 0 0 0 0 0 0
0 0 0 0 0 0 0 0 0 0 0 0 0 0 0 0 0 0 0 0 0 0 0 0 0 0 0 0 0 0 0 0 0 0 0 0 0 0 0 0 0 0 0
0 0 0 0 0 0 0 0 0 0 0 0 0 0 0 0 0 0 0 0 0 0 0 0 0 0 0 0 0 0 0 0 0 0 0 0 0 0 0 0 0 0 0
0 0 0 0 0 0 0 0 0 0 0 0 0 0 0 0 0 0 0 0 0 0 0 0 0 0 0 0 0 0 0 0 0 0 0 0 0 0 0 0 0 0 0
0 0 0 0 0 0 0 0 0 0 0 0 0 0 0 0 0 0 0 0 0 0 0 0 0 0 0 0 0 0 0 0 0 0 0 0 0 0 0 0 0 0 0
0 0 0 0 0 0 0 0 0 0 0 0 0 0 0 0 0 0 0 0 0 0 0 0 0 0 0 0 0 0 0 0 0 0 0 0 0 0 0 0 0 0 0
0 0 0 0 0 0 0 0 0 0 0 0 0 0 0 0 5 8 0 0 0 0 0 0 0 0 0 0 0 0 0 0 8 6 2 0 0 2 0 0 0 0 0
0 0 0 0 0 0 0 0 0 0 0 0 0 0 0 0 0 0 0 0 0 0 0 0 0 0 0 0 0 0 0 0 0 0 0 0 0 0 0 0 0 0 0
0 0 0 0 0 0 0 0 0 0 0 0 0 0 0 0 0 0 0 0 0 0 0 0 0 0 0 0 0 0 0 0 0 0 0 0 0 0 0 0 0 0 0
0 0 0 0 0 0 0 0 0 0 0 0 0 0 0 0 0 0 0 0 0 0 0 0 0 0 0 0 0 0 0 0 0 0 0 0 0 0 0 0 0 0 0
0 0 0 0 0 0 0 0 0 0 0 0 0 0 0 0 0 1 0 0 0 0 0 0 0 0 0 0 0 0 0 0 0 0 0 0 0 0 0 0 0 0 0
0 0 0 0 0 0 0 0 0 0 0 1 0 0 0 0 0 0 0 0 0 0 0 0 0 0 0 0 0 0 0 0 0 0 0 0 0 0 0 0 0 0 0
0 0 0 0 0 1 0 0 0 0 0 0 0 0 0 0 0 0 0 0 0 0 0 0 0 0 0 0 0 0 0 0 0 0 0 0 0 0 0 0 0 0 0
0 0 0 0 0 0 0 0 0 0 0 0 0 0 0 0 0 1 3 1 0 0 0 0 0 0 0 0 0 0 0 0 0 0 0 0 0 0 0 0 0 0 0
0 0 0 0 0 0 0 0 0 0 0 0 0 0 0 0 0 0 1 1 0 0 0 0 0 0 0 0 0 0 0 0 0 0 0 0 0 0 0 0 0 0 0
0 0 0 0 0 0 0 0 0 0 0 0 0 0 0 0 0 0 0 1 0 0 0 0 0 0 0 0 0 0 0 0 0 0 0 0 0 0 0 0 0 0 0
0 0 0 0 0 0 0 0 0 0 0 0 0 0 0 0 0 0 0 0 0 0 0 0 0 0 0 0 0 0 0 0 0 0 0 0 0 0 0 0 0 0 0
0 0 0 0 0 0 0 0 0 0 0 0 0 0 0 0 0 0 0 0 0 0 0 0 0 0 0 0 0 0 0 0 0 0 0 0 0 0 0 0 0 0 0
0 0 0 0 0 0 0 0 0 0 0 0 0 0 0 0 0 0 0 0 0 0 0 0 0 0 0 0 0 0 0 0 0 0 0 0 0 0 0 0 0 0 0
0 0 0 0 0 0 0 0 0 0 0 0 0 0 0 0 0 0 0 0 0 0 0 0 0 0 0 0 0 0 0 0 0 0 0 0 0 0 0 0 0 0 0
0 0 0 0 0 0 0 0 0 0 0 0 0 0 0 0 0 0 0 0 0 0 0 0 0 0 0 0 0 0 0 0 0 0 0 0 0 0 0 0 0 0 0
0 0 0 0 0 0 0 0 0 0 0 0 0 0 0 0 0 0 0 0 0 0 0 0 0 0 0 0 0 0 0 0 0 0 0 0 0 0 0 0 0 0 0
0 0 0 0 0 0 0 0 0 0 0 0 0 0 0 0 0 0 0 0 0 0 0 0 0 0 0 0 0 0 0 0 0 0 0 0 0 0 0 0 0 0 0
0 0 0 0 0 0 0 0 0 0 0 0 0 0 0 0 0 0 0 0 0 0 0 0 0 0 0 0 0 0 0 0 0 0 0 0 0 0 0 0 0 0 0
CIN
0 0 0 0 0 0 0 0 0 0 0 0 0 0 0 0 0 0 0 0 0 0 0 0 0 0 0 0 0 0 0 0 0 0 0 0 0 0 0 0 0 0 0
0 0 0 0 0 0 0 0 0 0 0 0 0 0 0 0 0 0 0 0 0 0 0 0 0 0 0 0 0 0 0 0 0 0 0 0 0 0 0 0 0 0 0
0 0 0 0 0 0 0 0 0 0 0 0 0 0 0 0 0 0 0 0 0 0 0 0 0 0 0 0 0 0 0 0 0 0 0 0 0 0 0 0 0 0 0
0 0 0 0 0 0 0 0 0 0 0 0 0 0 0 0 0 0 0 0 0 0 0 0 0 0 0 0 0 0 0 0 0 0 0 0 0 0 0 0 0 0 0
0 0 0 0 0 0 0 0 0 0 0 0 0 0 0 0 0 0 0 0 0 0 0 0 0 0 0 0 0 0 0 0 0 0 0 0 0 0 0 0 0 0 0
0 0 0 0 0 0 0 0 0 0 0 0 0 0 0 0 0 0 0 0 0 0 0 0 0 0 0 0 0 0 0 0 0 0 0 0 0 0 0 0 0 0 0
0 0 0 0 0 0 0 0 0 0 0 0 0 0 0 0 0 0 0 0 0 0 0 0 0 0 0 0 0 0 0 0 0 0 0 0 0 0 0 0 0 0 0
0 0 0 0 0 0 0 0 0 0 0 0 0 0 0 0 0 0 0 0 0 0 0 0 0 0 0 0 0 0 0 0 0 0 0 0 0 0 0 0 0 0 0
0 0 0 0 0 0 0 0 0 0 0 0 0 0 0 0 0 0 0 0 0 0 0 0 0 0 0 0 0 0 0 0 -0 0 0 0 0 0 0 0 0 0 0
0 0 0 0 0 0 0 0 0 0 0 0 0 0 0 0 -0 0 0 0 0 0 0 0 0 0 0 0 0 0 0 0 0 0 0 0 0 0 0 0 0 0 0
0 0 0 0 0 0 0 0 0 0 0 0 0 0 0 0 0 0 0 0 0 0 0 0 0 0 0 0 0 0 0 0 0 0 0 0 0 0 0 0 0 0 0
0 0 0 0 0 0 0 0 0 0 0 0 0 0 0 0 0 0 0 0 0 0 0 0 0 0 0 0 0 0 0 0 0 0 0 0 0 0 0 0 0 0 0
0 0 -0 0 0 0 0 0 -0 0 0 0 0 0 0 0 0 -0 0 0 0 0 0 0 0 0 -0 0 0 0 0 0 0 0 0 0 0 0 0 0 0 0 0
0 0 0 0 0 0 -0 0 0 0 0 0 0 0 0 0 0 0 0 0 0 0 0 0 0 0 0 0 0 0 0 0 0 0 0 0 0 0 0 0 0 0 0
0 0 0 0 0 -0 0 0 0 0 0 0 0 0 0 0 0 0 -0 0 0 0 0 0 0 0 0 0 0 0 0 0 0 0 0 0 0 0 0 0 0 0 0
0 0 0 0 0 0 0 0 0 0 0 0 0 0 0 0 0 0 0 0 0 0 0 0 0 0 0 0 0 0 0 0 0 0 0 0 0 0 0 0 0 0 0
0 0 0 0 0 0 0 0 0 0 0 0 0 0 0 0 0 0 0 0 0 0 0 0 0 0 0 0 0 0 0 0 0 0 0 0 0 0 0 0 0 0 0
0 0 0 0 0 0 0 0 0 0 0 0 0 0 0 0 0 0 0 0 0 0 0 0 0 0 0 0 0 0 0 0 0 0 0 0 0 0 0 0 0 0 0
0 0 0 0 0 0 0 0 0 0 0 0 0 0 0 0 0 0 0 0 0 -0 0 0 0 0 0 0 0 0 0 0 0 0 0 0 0 0 0 0 0 0 0
0 0 0 0 0 0 0 0 0 0 0 0 0 0 0 0 -0 0 0 0 0 0 0 0 0 0 0 0 0 0 0 0 0 0 0 0 0 0 0 0 0 0 0
0 0 0 0 0 0 0 0 0 0 0 0 0 0 0 0 0 0 -0 0 0 0 0 0 0 0 0 0 0 0 0 0 0 0 0 0 0 0 0 0 0 0 0
0 0 0 0 0 0 0 0 0 0 0 0 0 0 0 0 0 0 0 0 0 0 0 0 0 0 0 0 0 0 0 0 0 0 0 0 0 0 0 0 0 0 0
0 0 0 0 0 0 0 0 0 0 0 0 0 0 0 0 0 0 0 0 0 0 0 0 0 0 0 0 0 0 0 0 0 0 0 0 0 0 0 0 0 0 0
0 0 0 0 0 0 0 0 0 0 0 0 0 0 0 0 0 0 0 0 0 0 0 0 0 0 0 0 0 0 0 0 0 0 0 0 0 0 0 0 0 0 0
0 0 0 0 0 0 0 0 0 0 0 0 0 0 0 0 0 0 0 0 0 0 0 0 0 0 0 0 0 0 0 0 0 0 0 0 0 0 0 0 0 0 0
0 0 0 0 0 0 0 0 0 0 0 0 0 0 0 0 0 0 0 0 0 0 0 0 0 0 0 0 0 0 0 0 0 0 0 0 0 0 0 0 0 0 0
Wind_Speed
11 9 11 9 9 10 11 10 10 7 8 8 8 8 7 7 6 7 6 5 8 6 5 7 6 4 4 4 3 4 4 2 4 2 3 3 5 6 7 7 6 6 6
10 10 10 8 9 10 11 10 9 9 8 9 8 8 7 7 6 7 7 5 7 7 6 6 5 5 5 5 4 5 4 4 3 2 4 3 3 7 5 5 7 7 5
11 12 11 10 9 9 10 10 9 9 7 7 7 8 8 6 7 6 7 7 7 6 6 6 3 6 6 3 4 5 5 6 5 3 1 2 2 3 4 4 5 5 7
11 12 13 11 11 12 11 10 10 8 9 6 5 6 6 7 8 8 9 8 7 6 5 6 6 7 7 5 6 4 5 6 5 3 3 2 1 4 1 1 4 3 5
12 11 12 11 12 13 12 12 11 9 8 8 9 6 6 7 7 11 11 9 9 7 3 4 6 10 13 10 7 4 5 5 3 2 2 2 3 4 2 3 2 2 2
13 12 12 13 13 13 12 12 13 10 9 8 10 9 7 5 19 18 13 9 7 6 6 5 5 11 12 15 16 14 9 4 3 2 1 2 3 2 2 2 2 4 4
15 14 14 15 15 14 13 11 9 11 10 8 9 9 8 7 20 18 16 6 6 5 6 6 7 5 7 6 13 13 11 9 4 2 2 1 1 2 2 3 2 0 2
15 15 14 15 14 13 13 12 12 10 11 10 8 8 8 8 19 17 16 7 6 5 4 4 5 5 5 7 7 7 5 3 1 3 3 3 1 0 4 4 4 3 1
17 17 16 16 16 15 14 13 11 11 10 9 8 7 8 7 17 18 13 7 7 6 5 4 4 5 15 13 6 7 5 3 10 11 10 10 10 11 10 3 4 4 2
17 17 16 15 16 16 15 14 11 10 12 9 9 7 9 6 16 20 15 8 8 6 5 5 9 6 11 11 5 5 5 3 4 4 4 6 8 7 10 5 3 2 2
14 14 14 14 14 13 13 11 11 10 11 9 9 7 6 6 13 20 19 9 7 6 5 3 2 12 12 12 10 5 5 5 3 4 3 3 4 4 4 3 2 1 1
15 15 14 14 11 11 14 12 12 11 11 9 9 6 5 3 12 19 19 13 14 7 6 3 4 13 12 12 7 13 13 6 3 3 3 3 3 3 4 4 3 2 1
16 15 14 14 13 13 13 12 11 11 9 9 8 7 6 4 3 17 20 17 16 5 6 10 12 13 12 8 11 11 6 4 3 3 1 1 2 3 5 3 4 3 2
15 15 14 14 13 12 9 10 9 9 9 8 8 7 7 5 4 3 7 10 13 7 11 8 4 6 5 4 4 4 3 3 4 3 2 2 3 3 3 2 3 4 3
14 13 13 11 12 11 8 9 9 9 11 10 9 9 10 8 7 10 12 8 7 8 7 3 2 3 2 2 2 2 2 2 3 2 2 1 1 2 2 2 1 2 2
13 11 10 10 9 8 8 7 11 14 18 18 18 13 8 8 19 19 19 18 18 17 4 3 2 3 4 4 4 3 1 3 2 3 2 2 2 1 0 2 2 2 1
13 12 10 10 9 9 9 9 9 5 12 16 19 17 16 15 21 21 19 19 20 16 4 3 5 5 4 5 5 4 4 4 3 3 3 3 3 1 1 1 1 1 2
11 14 10 9 9 9 8 8 8 10 9 5 10 12 15 17 20 21 20 17 10 9 3 5 6 5 5 5 5 5 3 4 3 3 3 3 3 2 1 1 0 1 1
10 8 8 8 8 8 7 7 7 7 8 7 3 5 9 17 19 21 22 8 8 8 6 6 5 6 6 5 5 4 5 5 4 3 3 4 3 3 2 2 2 1 2
9 13 10 8 8 8 7 7 6 6 6 7 7 7 6 7 8 8 9 8 7 6 6 6 5 6 5 6 5 5 4 4 4 3 3 3 3 3 3 3 3 2 1
7 8 11 8 8 7 7 7 6 6 6 6 5 5 11 9 8 9 9 7 8 6 6 5 5 5 5 5 6 6 6 5 5 5 4 4 4 3 2 2 2 2 2
8 8 8 8 7 7 7 7 7 7 6 6 3 4 8 3 5 6 6 6 6 6 5 6 5 5 6 7 7 7 7 6 4 4 4 4 4 3 2 2 2 1 1
8 9 7 7 7 7 6 6 7 7 7 6 6 6 6 6 5 6 6 5 5 5 4 4 4 3 3 4 5 7 7 6 6 5 5 5 4 3 3 3 2 2 1
8 9 9 7 7 7 7 7 6 7 7 7 7 7 7 7 7 7 6 4 4 3 3 3 4 7 6 5 4 4 4 4 4 6 7 5 4 4 3 2 3 3 2
7 7 8 8 8 7 7 6 6 6 6 6 6 6 6 6 6 6 5 5 5 5 5 5 5 8 8 9 7 7 7 8 6 6 4 5 5 6 3 2 2 1 1
7 7 7 6 6 6 6 6 6 6 6 5 5 5 5 6 5 6 6 6 6 6 6 5 7 10 10 8 8 9 8 8 7 6 4 4 5 3 3 3 3 2 1
Wind_Direction
153 147 136 145 148 148 139 138 140 128 131 124 125 119 120 117 113 110 103 98 97 91 76 86 77 68 69 60 53 51 47 50 103 86 18 336 8 356 354 355 3 27 356
154 138 128 125 143 144 133 134 131 131 127 130 126 123 124 121 122 122 117 106 108 104 97 95 99 103 73 61 59 58 55 31 98 101 8 334 10 353 332 360 10 23 3
148 134 132 143 141 125 123 123 119 125 121 121 126 131 130 128 119 101 111 107 100 97 96 96 95 97 77 59 69 73 57 59 52 88 360 319 310 0 336 340 6 11 25
151 147 140 151 140 129 124 124 121 123 123 111 105 117 125 123 118 116 107 104 103 96 95 100 100 99 109 101 88 80 78 76 65 63 39 336 354 313 325 356 342 356 11
151 145 151 145 136 129 137 134 129 135 137 134 127 115 119 128 129 124 121 116 115 111 102 118 121 121 110 104 107 97 95 83 74 58 44 10 340 348 3 304 304 299 308
150 151 146 141 139 141 144 143 137 133 139 148 143 136 133 148 144 139 132 131 130 129 124 101 97 105 105 104 105 104 106 106 91 110 163 89 310 248 297 296 319 17 348
156 154 154 151 148 145 138 136 134 139 139 149 141 141 141 155 146 150 144 130 132 130 130 130 126 127 114 115 110 103 96 92 113 128 108 217 302 252 279 339 326 295 237
155 154 157 150 146 145 144 152 156 154 155 148 144 149 148 161 153 158 151 130 123 117 127 126 117 141 154 130 116 103 88 72 170 110 78 42 42 4 10 1 320 319 262
162 162 163 155 154 153 157 159 157 150 143 142 146 153 163 158 168 174 151 136 128 126 130 119 113 122 167 148 127 123 106 57 82 99 76 57 41 48 33 12 12 7 344
168 163 161 163 157 160 158 157 158 159 147 153 143 161 173 147 169 160 152 142 140 141 136 132 132 131 151 148 127 126 105 62 79 64 25 28 34 31 38 33 346 354 310
151 156 158 154 152 151 145 145 146 151 147 150 146 149 159 163 165 164 156 152 149 147 141 131 113 138 135 128 118 106 125 141 72 89 64 15 14 10 2 15 11 130 38
152 149 144 149 149 149 147 148 151 150 144 142 138 138 155 162 175 175 173 162 158 147 156 162 161 139 131 124 122 119 121 107 96 72 58 16 9 339 327 338 346 27 223
146 148 148 152 154 151 148 146 143 151 152 155 155 157 165 174 172 188 180 171 164 133 148 167 168 150 142 135 128 126 114 102 100 79 118 264 232 264 293 349 344 17 341
145 146 148 148 148 149 146 150 150 156 155 157 156 164 165 165 168 142 165 168 161 140 155 166 159 107 111 118 73 97 109 130 142 153 185 250 303 1 10 2 26 345 35
145 147 150 149 149 149 149 155 158 166 166 163 170 166 164 180 189 165 162 162 155 153 130 106 95 96 122 117 73 119 107 112 126 159 131 145 354 9 347 335 35 8 72
145 147 150 145 144 146 145 150 167 170 177 181 171 172 183 175 173 174 171 171 167 151 117 138 160 158 182 187 181 172 178 175 182 160 150 163 162 151 7 347 31 52 12
148 150 146 145 143 148 154 155 149 158 181 175 173 180 177 170 177 179 180 175 169 159 155 169 177 180 194 191 181 175 183 197 163 168 158 178 172 164 121 14 338 328 319
144 148 146 142 145 152 156 158 152 151 155 157 182 184 186 177 179 178 176 168 172 184 159 182 195 188 194 193 185 181 165 160 176 174 164 173 181 154 156 213 234 215 281
137 140 138 134 143 142 141 142 145 148 152 152 125 169 180 182 178 180 179 177 181 195 187 193 193 189 197 190 180 169 163 175 173 158 174 179 185 154 186 199 218 217 270
137 137 139 138 135 137 140 140 141 144 147 158 169 176 156 157 181 180 185 186 193 192 188 192 190 195 192 185 171 170 165 160 176 188 185 184 183 173 176 188 185 196 243
133 137 138 132 145 149 149 150 150 152 157 164 168 169 171 176 179 183 188 183 190 187 183 188 190 194 185 178 174 173 181 178 184 188 177 177 160 168 188 175 188 214 233
135 140 144 146 144 148 155 152 155 160 164 166 145 149 158 129 154 168 176 185 189 190 183 187 198 195 186 184 183 178 176 179 183 173 167 160 169 164 151 156 171 198 253
139 142 142 146 154 145 145 153 159 166 170 169 159 159 176 181 178 183 192 193 181 181 175 181 179 164 157 164 171 167 162 180 183 158 154 157 162 162 160 162 169 199 207
147 151 151 149 148 156 160 162 163 165 165 164 165 170 180 189 189 193 189 166 151 143 147 146 149 147 131 115 104 98 108 121 138 158 149 153 162 164 151 158 182 194 197
145 147 151 155 157 160 153 155 161 165 168 167 167 170 175 180 181 184 161 139 127 122 106 106 107 117 113 114 115 113 116 113 117 123 127 131 153 163 161 161 157 169 158
142 145 144 141 142 148 154 157 163 163 167 170 171 175 169 170 151 135 132 129 125 118 116 106 110 113 114 111 115 114 110 107 106 106 123 133 148 152 139 147 160 159 215